Change the Weather History Date:

Thursday, May 30, 2013

  Actual Average Record
Temperature  
Mean Temperature 76 °F -  
Max Temperature 87 °F 74 °F 95 °F (1987)
Min Temperature 66 °F 54 °F 38 °F (1945)
Cooling Degree Days 12    
Growing Degree Days 26 (Base 50)    
Moisture  
Dew Point 67 °F    
Average Humidity 73    
Maximum Humidity 94    
Minimum Humidity 45    
Precipitation  
Precipitation 0.00 in - - ()
Sea Level Pressure  
Sea Level Pressure 30.02 in    
Wind  
Wind Speed 5 mph (SSW)    
Max Wind Speed 17 mph    
Max Gust Speed 28 mph    
Visibility 10 miles    
Events Rain    
Averages and records for this station are not official NWS values.
T = Trace of Precipitation, MM = Missing Value Source: NWS Daily Summary

Daily Weather History Graph

Daily Weather History Graph

Search for Another Location

Airport or City:

Trip Planner

Search our weather history database for the weather conditions in past years. The results will help you decide how hot, cold, wet, or windy it might be!

Date:

Astronomy

May. 30, 2013 Rise Set
Actual Time 6:01 AM EDT 9:01 PM EDT
Civil Twilight 5:28 AM EDT 9:34 PM EDT
Nautical Twilight 4:45 AM EDT 10:17 PM EDT
Astronomical Twilight 3:56 AM EDT 11:07 PM EDT
Moon 12:58 AM EDT (5/30) 12:12 PM EDT (5/30)
Length of Visible Light 16h 06m
Length of Day
14h 59m
Waning Gibbous, 62% of the Moon is Illuminated
May 30
Waning Gibbous
May 31
Last Quarter
Jun 8
New
Jun 16
First Quarter
Jun 23
Full

Hourly Weather History & Observations

Time (EDT) Temp. Heat Index Dew Point Humidity Pressure Visibility Wind Dir Wind Speed Gust Speed Precip Events Conditions
12:14 AM 68.0 °F - 66.2 °F 94% 30.00 in 7.0 mi Calm Calm - N/A   Clear
12:34 AM 68.0 °F - 66.2 °F 94% 30.01 in 7.0 mi Calm Calm - N/A   Clear
12:54 AM 68.0 °F - 66.2 °F 94% 30.01 in 10.0 mi Calm Calm - N/A   Clear
1:15 AM 66.2 °F - 64.4 °F 94% 30.01 in 7.0 mi Calm Calm - N/A   Clear
1:35 AM 68.0 °F - 64.4 °F 88% 30.02 in 10.0 mi Calm Calm - N/A   Clear
1:55 AM 69.8 °F - 64.4 °F 83% 30.02 in 10.0 mi South 3.5 mph - N/A   Clear
2:15 AM 69.8 °F - 62.6 °F 78% 30.02 in 10.0 mi South 3.5 mph - N/A   Clear
2:35 AM 69.8 °F - 62.6 °F 78% 30.03 in 10.0 mi South 3.5 mph - N/A   Clear
2:55 AM 69.8 °F - 62.6 °F 78% 30.03 in 10.0 mi South 3.5 mph - N/A   Clear
3:15 AM 69.8 °F - 62.6 °F 78% 30.03 in 10.0 mi SSW 3.5 mph - N/A   Clear
3:30 AM 69.8 °F - 62.6 °F 78% 30.03 in 10.0 mi SSW 4.6 mph - N/A   Clear
3:53 AM 71.6 °F - 62.6 °F 73% 30.03 in 10.0 mi SSW 5.8 mph - N/A   Clear
4:15 AM 71.6 °F - 62.6 °F 73% 30.03 in 10.0 mi SW 5.8 mph - N/A   Clear
4:35 AM 71.6 °F - 62.6 °F 73% 30.03 in 10.0 mi SSW 4.6 mph - N/A   Clear
4:55 AM 69.8 °F - 62.6 °F 78% 30.04 in 10.0 mi SSW 4.6 mph - N/A   Clear
5:15 AM 69.8 °F - 62.6 °F 78% 30.04 in 10.0 mi South 3.5 mph - N/A   Clear
5:35 AM 69.8 °F - 62.6 °F 78% 30.04 in 10.0 mi South 3.5 mph - N/A   Clear
5:55 AM 69.8 °F - 62.6 °F 78% 30.04 in 10.0 mi South 4.6 mph - N/A   Clear
6:16 AM 69.8 °F - 62.6 °F 78% 30.04 in 10.0 mi South 3.5 mph - N/A   Clear
6:36 AM 69.8 °F - 62.6 °F 78% 30.05 in 10.0 mi South 4.6 mph - N/A   Clear
6:56 AM 69.8 °F - 64.4 °F 83% 30.06 in 10.0 mi South 3.5 mph - N/A   Clear
7:16 AM 71.6 °F - 64.4 °F 78% 30.06 in 10.0 mi South 4.6 mph - N/A   Scattered Clouds
7:36 AM 71.6 °F - 64.4 °F 78% 30.07 in 10.0 mi South 4.6 mph - N/A   Scattered Clouds
7:56 AM 73.4 °F - 66.2 °F 78% 30.07 in 10.0 mi South 4.6 mph - N/A   Scattered Clouds
8:16 AM 73.4 °F - 66.2 °F 78% 30.07 in 10.0 mi SSW 5.8 mph - N/A   Mostly Cloudy
8:36 AM 75.2 °F - 66.2 °F 73% 30.07 in 10.0 mi SSW 8.1 mph - N/A   Scattered Clouds
8:51 AM 77.0 °F - 66.2 °F 69% 30.07 in 10.0 mi SSW 8.1 mph - N/A   Clear
9:11 AM 78.8 °F - 66.2 °F 65% 30.07 in 10.0 mi SSW 9.2 mph - N/A   Clear
9:32 AM 78.8 °F - 66.2 °F 65% 30.07 in 10.0 mi SSW 10.4 mph 16.1 mph N/A   Scattered Clouds
9:52 AM 78.8 °F - 66.2 °F 65% 30.07 in 10.0 mi SSW 10.4 mph - N/A   Scattered Clouds
10:12 AM 80.6 °F 82.7 °F 66.2 °F 61% 30.07 in 10.0 mi SW 11.5 mph 17.3 mph N/A   Clear
10:32 AM 82.4 °F 85.4 °F 68.0 °F 62% 30.07 in 10.0 mi SW 9.2 mph - N/A   Clear
10:52 AM 82.4 °F 85.4 °F 68.0 °F 62% 30.07 in 10.0 mi SW 10.4 mph 19.6 mph N/A   Clear
11:12 AM 84.2 °F 87.3 °F 68.0 °F 58% 30.06 in 10.0 mi WSW 15.0 mph - N/A   Clear
11:32 AM 84.2 °F 87.3 °F 68.0 °F 58% 30.06 in 10.0 mi SW 13.8 mph 21.9 mph N/A   Clear
11:52 AM 86.0 °F 89.4 °F 68.0 °F 55% 30.06 in 10.0 mi SSW 12.7 mph 17.3 mph N/A   Clear
12:12 PM 86.0 °F 89.4 °F 68.0 °F 55% 30.06 in 10.0 mi SW 13.8 mph - N/A   Clear
12:32 PM 86.0 °F 89.4 °F 68.0 °F 55% 30.05 in 10.0 mi SSW 8.1 mph - N/A   Scattered Clouds
12:53 PM 87.8 °F 91.4 °F 68.0 °F 52% 30.05 in 10.0 mi SSW 11.5 mph - N/A   Scattered Clouds
1:13 PM 87.8 °F 91.4 °F 68.0 °F 52% 30.04 in 10.0 mi SSW 9.2 mph - N/A   Scattered Clouds
1:33 PM 87.8 °F 90.4 °F 66.2 °F 49% 30.03 in 10.0 mi SSW 15.0 mph 18.4 mph N/A   Scattered Clouds
1:53 PM 87.8 °F 90.4 °F 66.2 °F 49% 30.02 in 10.0 mi SSW 12.7 mph 16.1 mph N/A   Scattered Clouds
2:13 PM 78.8 °F - 69.8 °F 74% 30.03 in 4.0 mi South 4.6 mph 27.6 mph N/A Rain Light Rain
2:33 PM 82.4 °F 87.2 °F 71.6 °F 70% 30.03 in 10.0 mi SW 5.8 mph - N/A   Scattered Clouds
2:53 PM 87.8 °F 93.8 °F 71.6 °F 58% 30.01 in 10.0 mi SSW 8.1 mph - N/A   Clear
3:13 PM 87.8 °F 91.4 °F 68.0 °F 52% 30.01 in 10.0 mi South 17.3 mph 23.0 mph N/A Rain Light Rain
3:33 PM 86.0 °F 90.4 °F 69.8 °F 58% 30.01 in 10.0 mi SSW 6.9 mph - N/A   Scattered Clouds
3:54 PM 87.8 °F 91.4 °F 68.0 °F 52% 30.00 in 10.0 mi SSW 6.9 mph - N/A   Scattered Clouds
4:14 PM 87.8 °F 90.4 °F 66.2 °F 49% 29.99 in 10.0 mi South 11.5 mph - N/A   Scattered Clouds
4:34 PM 87.8 °F 89.4 °F 64.4 °F 46% 29.98 in 10.0 mi South 12.7 mph - N/A   Scattered Clouds
4:54 PM 86.0 °F 86.6 °F 62.6 °F 45% 29.99 in 10.0 mi SW 9.2 mph - N/A   Mostly Cloudy
5:14 PM 75.2 °F - 69.8 °F 83% 29.98 in 10.0 mi WNW 8.1 mph 11.5 mph N/A Rain Light Rain
5:34 PM 78.8 °F - 71.6 °F 78% 29.98 in 10.0 mi Calm Calm - N/A   Mostly Cloudy
5:54 PM 78.8 °F - 71.6 °F 78% 29.97 in 10.0 mi East 4.6 mph - N/A   Scattered Clouds
6:14 PM 78.8 °F - 71.6 °F 78% 29.96 in 10.0 mi East 5.8 mph - N/A   Mostly Cloudy
6:34 PM 78.8 °F - 71.6 °F 78% 29.98 in 10.0 mi NW 9.2 mph 12.7 mph N/A Rain Light Rain
6:54 PM 77.0 °F - 71.6 °F 83% 29.98 in 10.0 mi ENE 3.5 mph - N/A   Scattered Clouds
7:15 PM 78.8 °F - 66.2 °F 65% 30.00 in 10.0 mi SSW 13.8 mph 17.3 mph N/A Rain Light Rain
7:35 PM 75.2 °F - 68.0 °F 78% 29.99 in 10.0 mi SE 3.5 mph - N/A Rain Light Rain
7:55 PM 73.4 °F - 69.8 °F 88% 29.98 in 10.0 mi Calm Calm - N/A Rain Light Rain
8:15 PM 75.2 °F - 69.8 °F 83% 29.98 in 10.0 mi Calm Calm - N/A   Mostly Cloudy
8:35 PM 73.4 °F - 71.6 °F 94% 29.98 in 10.0 mi Calm Calm - N/A   Scattered Clouds
8:55 PM 73.4 °F - 69.8 °F 88% 29.98 in 10.0 mi Calm Calm - N/A   Scattered Clouds
9:15 PM 75.2 °F - 69.8 °F 83% 29.99 in 10.0 mi ESE 4.6 mph - N/A   Scattered Clouds
9:35 PM 73.4 °F - 69.8 °F 88% 29.99 in 10.0 mi ESE 4.6 mph - N/A   Scattered Clouds
9:55 PM 73.4 °F - 68.0 °F 83% 30.00 in 10.0 mi SE 5.8 mph - N/A   Scattered Clouds
10:16 PM 73.4 °F - 68.0 °F 83% 30.00 in 10.0 mi ESE 3.5 mph - N/A   Clear
10:36 PM 71.6 °F - 68.0 °F 88% 30.01 in 10.0 mi Calm Calm - N/A   Clear
10:56 PM 71.6 °F - 68.0 °F 88% 30.01 in 10.0 mi Calm Calm - N/A   Scattered Clouds
11:16 PM 69.8 °F - 68.0 °F 94% 30.01 in 7.0 mi Calm Calm - N/A   Scattered Clouds
11:36 PM 71.6 °F - 68.0 °F 88% 30.01 in 10.0 mi WNW 4.6 mph - N/A   Clear
11:56 PM 71.6 °F - 68.0 °F 88% 30.01 in 10.0 mi Calm Calm - N/A   Clear